Location: ????
(30.2663°N, 31.2484°E)
Time: 03:09:52
(UTC+00:00)

Cosmos 1656 - Pass Details

Date: 27 September 2022
Orbit: 797 x 849 km, 71.1° (Epoch: 30 November)

Event Time Altitude Azimuth Distance (km) Brightness Sun altitude
Rises 01:58:12 0° 341° (NNW) 3,415 6.8 -23.9°
Reaches altitude 10° 02:00:40 10° 342° (NNW) 2,476 6.1 -23.4°
Maximum altitude 02:06:22 83° 70° (ENE) 855 3.7 -22.2°
Drops below altitude 10° 02:12:01 10° 159° (SSE) 2,447 6.2 -21.0°
Sets 02:14:26 0° 160° (SSE) 3,372 7.0 -20.5°
